EW8494 Weather Reports


Display with metric or nautical units.
time (UTC)temp
F
wind
direction
speed
MPH
gust
MPH
rain 1hr
in
rain 24hr
in
rain mn
in
humidity
%
barometer
mb
20260904132519 48 0.0 0.0 0.00 0.01 0.00 66 1010.6
20260904131519 48 0.0 0.0 0.00 0.01 0.00 66 1010.5
20260904130539 48 0.0 0.0 0.00 0.01 0.00 66 1010.6
20260904125559 47 0.0 0.0 0.00 0.01 0.00 66 1010.4
20260904124520 48 0.0 0.0 0.00 0.01 0.00 66 1010.4
20260904123520 48 0.0 0.0 0.00 0.01 0.00 66 1010.4
20260904122519 48 0.0 0.0 0.00 0.01 0.00 66 1010.2
20260904121519 48 0.0 0.0 0.00 0.01 0.00 66 1010.1
20260904120520 48 0.0 0.0 0.00 0.01 0.00 67 1010.2
20260904115520 48 0.0 0.0 0.00 0.01 0.00 66 1010.2
20260904114519 48 0.0 0.0 0.00 0.01 0.00 66 1010.1
20260904113519 48 0.0 0.0 0.00 0.01 0.00 66 1010.1
20260904112519 49 0.0 0.0 0.00 0.01 0.00 66 1010.0
20260904111519 49 0.0 0.0 0.00 0.01 0.00 66 1009.8
20260904110520 49 0.0 0.0 0.00 0.01 0.00 67 1009.7
20260904105539 49 0.0 0.0 0.00 0.01 0.00 67 1009.6
20260904104519 49 0.0 0.0 0.00 0.01 0.00 67 1009.4
20260904103519 49 0.0 1.0 0.00 0.01 0.00 67 1009.5
20260904102519 49 0.0 0.0 0.00 0.01 0.00 67 1009.5
20260904101520 50 0.0 0.0 0.00 0.01 0.00 67 1009.5
20260904100520 50 0.0 0.0 0.00 0.01 0.00 67 1009.2
20260904095539 50 0.0 0.0 0.00 0.01 0.00 66 1009.0
20260904094519 51 0.0 0.0 0.00 0.01 0.00 66 1009.0
20260904093519 51 0.0 0.0 0.00 0.01 0.00 66 1009.0
20260904092519 51 0.0 0.0 0.00 0.01 0.00 66 1008.9
20260904091520 51 0.0 0.0 0.00 0.01 0.00 66 1008.9
20260904090519 51 0.0 0.0 0.00 0.01 0.00 67 1008.9
20260904085519 51 0.0 0.0 0.00 0.01 0.00 66 1008.9
20260904084519 51 0.0 0.0 0.00 0.01 0.00 65 1008.8
20260904083519 51 90 2.0 6.0 0.00 0.01 0.00 65 1008.6
20260904082519 52 0.0 0.0 0.00 0.01 0.00 65 1008.6
20260904081519 52 0.0 0.0 0.00 0.01 0.00 65 1008.7
20260904080519 52 0.0 0.0 0.00 0.01 0.00 64 1008.8
20260904075539 53 0.0 0.0 0.00 0.01 0.00 64 1008.9
20260904074559 53 0.0 0.0 0.00 0.01 0.00 63 1008.8
20260904073539 53 0.0 0.0 0.00 0.01 0.00 62 1008.8
20260904072559 54 0.0 0.0 0.00 0.02 0.00 62 1008.8
20260904071519 54 0.0 0.0 0.00 0.02 0.00 61 1008.8
20260904070519 55 0.0 0.0 0.00 0.03 0.00 60 1009.0
20260904065519 56 0.0 0.0 0.00 0.03 0.03 59 1008.8
20260904064539 56 90 2.0 4.0 0.00 0.04 0.03 57 1008.8
20260904063519 56 90 1.0 3.0 0.00 0.04 0.03 55 1008.7
20260904062519 57 0.0 1.0 0.00 0.04 0.03 54 1008.6
20260904061519 58 90 1.0 3.0 0.00 0.04 0.03 52 1008.6
20260904060519 58 90 2.0 6.0 0.00 0.04 0.03 50 1008.5
20260904055538 58 0.0 0.0 0.00 0.04 0.03 50 1008.4
20260904054519 58 0.0 1.0 0.00 0.04 0.03 49 1008.4
20260904053518 58 158 1.0 3.0 0.00 0.04 0.03 49 1008.4
20260904052519 59 158 2.0 4.0 0.00 0.04 0.03 51 1008.4
20260904051519 59 135 2.0 8.0 0.00 0.05 0.03 49 1008.2
20260904050519 59 135 5.0 11.0 0.00 0.05 0.03 50 1008.1
20260904045519 60 135 4.0 11.0 0.00 0.05 0.03 53 1007.9
20260904044518 60 135 3.0 8.0 0.00 0.06 0.03 51 1007.9
20260904043518 59 135 1.0 4.0 0.00 0.07 0.03 49 1007.8
20260904042519 59 0.0 0.0 0.00 0.08 0.03 50 1007.6
20260904041559 59 135 1.0 2.0 0.00 0.09 0.03 50 1007.4
20260904040519 60 0.0 0.0 0.00 0.10 0.03 53 1007.5
20260904035519 62 0.0 0.0 0.00 0.11 0.03 50 1007.6
20260904034519 62 0.0 2.0 0.00 0.12 0.03 42 1007.5
20260904033518 62 158 2.0 4.0 0.00 0.12 0.03 42 1007.4
20260904032519 61 135 2.0 5.0 0.00 0.13 0.03 45 1007.3
20260904031519 60 113 1.0 4.0 0.00 0.14 0.03 49 1007.3
20260904030541 61 90 2.0 4.0 0.00 0.14 0.03 56 1007.2
20260904025519 61 90 2.0 4.0 0.00 0.14 0.03 55 1007.2
20260904024559 62 90 2.0 4.0 0.00 0.15 0.03 51 1006.9
20260904023539 62 90 2.0 4.0 0.00 0.15 0.03 47 1006.9
20260904022520 63 113 1.0 3.0 0.00 0.15 0.03 44 1006.9
20260904021519 64 113 2.0 3.0 0.00 0.15 0.03 45 1006.9
20260904020518 65 0.0 2.0 0.00 0.15 0.03 41 1007.1
20260904015518 65 0.0 2.0 0.00 0.15 0.03 40 1007.0
20260904014540 65 0.0 2.0 0.00 0.15 0.03 41 1007.1
20260904013532 65 0.0 0.0 0.00 0.15 0.03 39 1007.2
20260904012519 65 0.0 0.0 0.00 0.15 0.03 40 1007.2
20260904011519 65 0.0 0.0 0.00 0.15 0.03 40 1007.2
20260904010520 65 0.0 0.0 0.00 0.15 0.03 41 1007.2
20260904005520 66 0.0 1.0 0.00 0.15 0.03 41 1007.2
20260904004519 66 225 1.0 3.0 0.00 0.15 0.03 36 1007.3
20260904003519 66 203 2.0 4.0 0.00 0.15 0.03 37 1007.4
20260904002520 67 203 1.0 2.0 0.00 0.15 0.03 37 1007.5
20260904001539 67 158 2.0 5.0 0.00 0.15 0.03 36 1007.5
20260904000519 67 158 2.0 6.0 0.00 0.15 0.03 35 1007.6
20260903235519 67 158 1.0 5.0 0.00 0.15 0.03 35 1007.5
20260903234519 67 203 1.0 2.0 0.00 0.15 0.03 36 1007.5
20260903233520 68 203 1.0 5.0 0.00 0.15 0.03 34 1007.7
20260903232519 68 180 3.0 7.0 0.00 0.15 0.03 32 1007.7
20260903231539 68 225 2.0 6.0 0.00 0.15 0.03 33 1007.8
20260903230519 69 158 2.0 5.0 0.00 0.15 0.03 30 1008.0
20260903225519 69 225 2.0 4.0 0.00 0.15 0.03 30 1008.0
20260903224559 70 180 3.0 7.0 0.00 0.15 0.03 32 1008.2
20260903223519 70 203 5.0 10.0 0.00 0.15 0.03 31 1008.5
20260903222519 70 203 3.0 11.0 0.00 0.15 0.03 33 1008.6
20260903221518 68 203 2.0 4.0 0.00 0.15 0.03 33 1008.4
20260903220519 68 158 2.0 7.0 0.00 0.15 0.03 34 1008.5
20260903215519 67 0.0 2.0 0.00 0.15 0.03 33 1008.6
20260903214519 67 203 2.0 5.0 0.00 0.15 0.03 36 1008.7
20260903213518 67 158 2.0 5.0 0.00 0.15 0.03 37 1008.7
20260903212519 67 158 1.0 9.0 0.00 0.15 0.03 34 1009.0
20260903211519 67 203 2.0 5.0 0.00 0.15 0.03 37 1008.9
20260903210519 68 225 4.0 8.0 0.00 0.15 0.03 35 1009.0
20260903205518 67 203 2.0 6.0 0.00 0.15 0.03 36 1009.0
20260903204519 67 203 2.0 5.0 0.00 0.15 0.03 34 1009.2
20260903203519 66 203 2.0 9.0 0.00 0.15 0.03 36 1009.1
20260903202519 66 158 2.0 5.0 0.00 0.15 0.03 38 1009.3
20260903201519 67 158 2.0 6.0 0.00 0.15 0.03 36 1009.3
20260903200519 67 203 2.0 6.0 0.00 0.15 0.03 38 1009.4
20260903195519 67 158 2.0 8.0 0.00 0.15 0.03 39 1009.4
20260903194518 66 203 4.0 11.0 0.00 0.15 0.03 41 1009.5
20260903193519 66 203 3.0 7.0 0.00 0.15 0.03 40 1009.5
20260903192519 66 225 4.0 8.0 0.00 0.15 0.03 39 1009.5
20260903191539 66 203 3.0 9.0 0.00 0.15 0.03 40 1009.6
20260903190539 66 180 2.0 6.0 0.00 0.15 0.03 43 1009.7
20260903185519 66 158 1.0 5.0 0.00 0.15 0.03 41 1009.8
20260903184519 65 225 2.0 5.0 0.00 0.15 0.03 41 1009.9
20260903183539 64 225 2.0 4.0 0.00 0.15 0.03 42 1009.8
20260903182518 64 203 3.0 5.0 0.00 0.15 0.03 45 1009.9
20260903181518 64 203 2.0 4.0 0.00 0.15 0.03 48 1009.9
20260903180518 64 225 4.0 8.0 0.00 0.15 0.03 47 1010.0
20260903175520 64 203 4.0 9.0 0.00 0.15 0.03 47 1009.9
20260903174519 64 225 5.0 12.0 0.00 0.15 0.03 50 1010.0
20260903173518 63 203 5.0 9.0 0.00 0.15 0.03 49 1010.0
20260903172519 62 270 1.0 4.0 0.01 0.15 0.03 54 1010.0
20260903171519 61 270 4.0 8.0 0.01 0.15 0.03 54 1010.1
20260903170518 61 248 4.0 8.0 0.01 0.15 0.03 54 1010.0
20260903165601 60 225 3.0 6.0 0.01 0.15 0.03 56 1009.9
20260903164519 60 225 3.0 7.0 0.01 0.15 0.03 55 1009.9
20260903163519 60 225 1.0 4.0 0.01 0.15 0.03 57 1010.0
20260903162519 59 225 2.0 5.0 0.00 0.14 0.02 57 1010.0
20260903161541 59 0.0 0.0 0.00 0.14 0.02 57 1010.0
20260903160520 58 225 2.0 4.0 0.00 0.14 0.02 58 1009.8
20260903155520 58 225 1.0 6.0 0.00 0.14 0.02 57 1009.8
20260903154518 57 225 3.0 6.0 0.00 0.14 0.02 59 1009.8
20260903153520 57 0.0 0.0 0.00 0.14 0.02 60 1009.8
20260903152520 56 0.0 0.0 0.00 0.14 0.02 59 1009.9
20260903151520 56 0.0 0.0 0.00 0.14 0.02 58 1009.9
20260903150521 56 0.0 0.0 0.00 0.14 0.02 59 1009.8
20260903145518 56 0.0 0.0 0.00 0.14 0.02 60 1009.8
20260903144520 55 0.0 0.0 0.00 0.14 0.02 60 1009.6
20260903143520 55 0.0 0.0 0.00 0.14 0.02 60 1009.6
20260903142520 54 0.0 0.0 0.00 0.14 0.02 60 1009.4
20260903141518 52 0.0 0.0 0.00 0.14 0.02 62 1009.3
20260903140520 52 0.0 0.0 0.00 0.14 0.02 62 1009.3
20260903135520 52 0.0 0.0 0.00 0.14 0.02 62 1009.3
20260903134520 52 225 1.0 4.0 0.00 0.14 0.02 62 1009.3
20260903133521 53 225 1.0 4.0 0.00 0.14 0.02 62 1009.2